Time,TemperatureF,DewpointF,PressureIn,WindDirection,WindDirectionDegrees,WindSpeedMPH,WindSpeedGustMPH,Humidity,HourlyPrecipIn,Conditions,Clouds,dailyrainin,SoftwareType,DateUTC
2013-05-31 00:01:00,43.0,25.0,-100.00,West,281,2.0,3.0,49,0.00,,,-99.99,,2013-05-31 06:01:00,
2013-05-31 00:11:00,44.0,24.0,-100.00,SW,224,4.0,8.0,44,0.00,,,-99.99,,2013-05-31 06:11:00,
2013-05-31 00:21:00,45.0,24.0,-100.00,West,267,2.0,8.0,43,0.00,,,-99.99,,2013-05-31 06:21:00,
2013-05-31 00:31:00,43.0,25.0,-100.00,WNW,285,4.0,7.0,49,0.00,,,-99.99,,2013-05-31 06:31:00,
2013-05-31 00:41:00,43.0,24.0,-100.00,SW,229,6.0,10.0,47,0.00,,,-99.99,,2013-05-31 06:41:00,
2013-05-31 00:51:00,43.0,24.0,-100.00,SSW,206,3.0,6.0,48,0.00,,,-99.99,,2013-05-31 06:51:00,
2013-05-31 01:01:00,43.0,24.0,-100.00,South,184,4.0,7.0,46,0.00,,,-99.99,,2013-05-31 07:01:00,
2013-05-31 01:11:00,44.0,24.0,-100.00,WSW,239,5.0,9.0,45,0.00,,,-99.99,,2013-05-31 07:11:00,
2013-05-31 01:21:00,43.0,24.0,-100.00,West,275,0.0,2.0,45,0.00,,,-99.99,,2013-05-31 07:21:00,
2013-05-31 01:32:00,44.0,24.0,-100.00,SW,234,3.0,6.0,43,0.00,,,-99.99,,2013-05-31 07:32:00,
2013-05-31 01:41:00,43.0,24.0,-100.00,SSW,198,7.0,9.0,46,0.00,,,-99.99,,2013-05-31 07:41:00,
2013-05-31 01:52:00,43.0,24.0,-100.00,SW,227,5.0,7.0,46,0.00,,,-99.99,,2013-05-31 07:52:00,
2013-05-31 02:01:00,42.0,24.0,-100.00,North,354,2.0,4.0,47,0.00,,,-99.99,,2013-05-31 08:01:00,
2013-05-31 02:11:00,43.0,24.0,-100.00,West,261,4.0,7.0,46,0.00,,,-99.99,,2013-05-31 08:11:00,
2013-05-31 02:21:00,43.0,24.0,-100.00,WSW,237,2.0,2.0,47,0.00,,,-99.99,,2013-05-31 08:21:00,
2013-05-31 02:31:00,43.0,24.0,-100.00,SSW,198,4.0,6.0,48,0.00,,,-99.99,,2013-05-31 08:31:00,
2013-05-31 02:41:00,42.0,24.0,-100.00,SSW,202,6.0,7.0,48,0.00,,,-99.99,,2013-05-31 08:41:00,
2013-05-31 02:51:00,42.0,25.0,-100.00,West,268,2.0,7.0,50,0.00,,,-99.99,,2013-05-31 08:51:00,
2013-05-31 03:01:00,40.0,24.0,-100.00,ENE,73,2.0,2.0,52,0.00,,,-99.99,,2013-05-31 09:01:00,
2013-05-31 03:11:00,39.0,25.0,-100.00,ESE,107,2.0,3.0,55,0.00,,,-99.99,,2013-05-31 09:11:00,
2013-05-31 03:21:00,41.0,24.0,-100.00,East,80,2.0,2.0,51,0.00,,,-99.99,,2013-05-31 09:21:00,
2013-05-31 03:32:00,42.0,25.0,-100.00,West,270,0.0,1.0,51,0.00,,,-99.99,,2013-05-31 09:32:00,
2013-05-31 03:42:00,41.0,25.0,-100.00,South,176,0.0,0.0,52,0.00,,,-99.99,,2013-05-31 09:42:00,
2013-05-31 03:53:00,40.0,25.0,-100.00,SW,227,1.0,2.0,55,0.00,,,-99.99,,2013-05-31 09:53:00,
2013-05-31 04:02:00,37.0,26.0,-100.00,SE,128,3.0,4.0,62,0.00,,,-99.99,,2013-05-31 10:02:00,
2013-05-31 04:12:00,41.0,24.0,-100.00,ESE,119,5.0,6.0,50,0.00,,,-99.99,,2013-05-31 10:12:00,
2013-05-31 04:22:00,41.0,24.0,-100.00,SE,144,7.0,8.0,51,0.00,,,-99.99,,2013-05-31 10:22:00,
2013-05-31 04:32:00,43.0,25.0,-100.00,ESE,104,3.0,4.0,49,0.00,,,-99.99,,2013-05-31 10:32:00,
2013-05-31 04:42:00,43.0,24.0,-100.00,ESE,113,2.0,4.0,48,0.00,,,-99.99,,2013-05-31 10:42:00,
2013-05-31 04:52:00,43.0,24.0,-100.00,ESE,119,4.0,6.0,48,0.00,,,-99.99,,2013-05-31 10:52:00,
2013-05-31 05:01:00,41.0,25.0,-100.00,ESE,109,4.0,5.0,51,0.00,,,-99.99,,2013-05-31 11:01:00,
2013-05-31 05:11:00,42.0,24.0,-100.00,ESE,120,4.0,4.0,48,0.00,,,-99.99,,2013-05-31 11:11:00,
2013-05-31 05:22:00,43.0,25.0,-100.00,ESE,112,4.0,6.0,49,0.00,,,-99.99,,2013-05-31 11:22:00,
2013-05-31 05:32:00,41.0,26.0,-100.00,East,96,6.0,7.0,53,0.00,,,-99.99,,2013-05-31 11:32:00,
2013-05-31 05:41:00,40.0,26.0,-100.00,East,95,8.0,9.0,57,0.00,,,-99.99,,2013-05-31 11:41:00,
2013-05-31 05:52:00,38.0,26.0,-100.00,ESE,103,7.0,8.0,61,0.00,,,-99.99,,2013-05-31 11:52:00,
2013-05-31 06:01:00,39.0,25.0,-100.00,SE,136,9.0,10.0,58,0.00,,,-99.99,,2013-05-31 12:01:00,
2013-05-31 06:11:00,40.0,25.0,-100.00,SE,133,9.0,10.0,55,0.00,,,-99.99,,2013-05-31 12:11:00,
2013-05-31 06:21:00,40.0,25.0,-100.00,SE,140,10.0,11.0,54,0.00,,,-99.99,,2013-05-31 12:21:00,
2013-05-31 06:31:00,40.0,25.0,-100.00,SE,140,11.0,12.0,56,0.00,,,-99.99,,2013-05-31 12:31:00,
2013-05-31 06:41:00,39.0,25.0,-100.00,SE,143,12.0,12.0,58,0.00,,,-99.99,,2013-05-31 12:41:00,
2013-05-31 06:51:00,40.0,26.0,-100.00,SE,144,10.0,10.0,57,0.00,,,-99.99,,2013-05-31 12:51:00,
2013-05-31 07:01:00,40.0,27.0,-100.00,SSE,148,11.0,12.0,60,0.00,,,-99.99,,2013-05-31 13:01:00,
2013-05-31 07:11:00,40.0,27.0,-100.00,SE,140,11.0,11.0,59,0.00,,,-99.99,,2013-05-31 13:11:00,
2013-05-31 07:21:00,42.0,27.0,-100.00,SE,138,10.0,11.0,55,0.00,,,-99.99,,2013-05-31 13:21:00,
2013-05-31 07:32:00,43.0,28.0,-100.00,SE,131,9.0,12.0,56,0.00,,,-99.99,,2013-05-31 13:32:00,
2013-05-31 07:42:00,43.0,28.0,-100.00,ESE,121,7.0,9.0,56,0.00,,,-99.99,,2013-05-31 13:42:00,
2013-05-31 07:52:00,43.0,28.0,-100.00,ESE,120,9.0,10.0,55,0.00,,,-99.99,,2013-05-31 13:52:00,
2013-05-31 08:02:00,43.0,30.0,-100.00,East,99,9.0,11.0,58,0.00,,,-99.99,,2013-05-31 14:02:00,
2013-05-31 08:11:00,44.0,29.0,-100.00,East,100,9.0,11.0,55,0.00,,,-99.99,,2013-05-31 14:11:00,
2013-05-31 08:21:00,44.0,27.0,-100.00,East,99,9.0,12.0,50,0.00,,,-99.99,,2013-05-31 14:21:00,
2013-05-31 08:31:00,45.0,27.0,-100.00,East,86,9.0,11.0,49,0.00,,,-99.99,,2013-05-31 14:31:00,
2013-05-31 08:41:00,45.0,26.0,-100.00,NE,51,9.0,12.0,48,0.00,,,-99.99,,2013-05-31 14:41:00,
2013-05-31 08:52:00,45.0,27.0,-100.00,ENE,71,9.0,12.0,48,0.00,,,-99.99,,2013-05-31 14:52:00,
2013-05-31 09:01:00,46.0,27.0,-100.00,ENE,69,9.0,12.0,47,0.00,,,-99.99,,2013-05-31 15:01:00,
2013-05-31 09:11:00,46.0,27.0,-100.00,ENE,68,9.0,13.0,47,0.00,,,-99.99,,2013-05-31 15:11:00,
2013-05-31 09:21:00,46.0,26.0,-100.00,East,83,9.0,12.0,46,0.00,,,-99.99,,2013-05-31 15:21:00,
2013-05-31 09:33:00,46.0,28.0,-100.00,ENE,66,8.0,11.0,49,0.00,,,-99.99,,2013-05-31 15:33:00,
2013-05-31 09:42:00,46.0,27.0,-100.00,East,79,7.0,11.0,47,0.00,,,-99.99,,2013-05-31 15:42:00,
2013-05-31 09:53:00,46.0,26.0,-100.00,ENE,66,9.0,11.0,44,0.00,,,-99.99,,2013-05-31 15:53:00,
2013-05-31 10:03:00,47.0,28.0,-100.00,NE,55,9.0,11.0,48,0.00,,,-99.99,,2013-05-31 16:03:00,
2013-05-31 10:12:00,48.0,26.0,-100.00,ENE,78,8.0,11.0,43,0.00,,,-99.99,,2013-05-31 16:12:00,
2013-05-31 10:22:00,48.0,27.0,-100.00,NE,56,7.0,10.0,44,0.00,,,-99.99,,2013-05-31 16:22:00,
2013-05-31 10:33:00,48.0,28.0,-100.00,ENE,61,7.0,10.0,46,0.00,,,-99.99,,2013-05-31 16:33:00,
2013-05-31 10:41:00,48.0,26.0,-100.00,ENE,75,7.0,10.0,42,0.00,,,-99.99,,2013-05-31 16:41:00,
2013-05-31 10:52:00,51.0,22.0,-100.00,North,10,2.0,4.0,32,0.00,,,-99.99,,2013-05-31 16:52:00,
2013-05-31 11:02:00,52.0,24.0,-100.00,SSE,151,2.0,6.0,33,0.00,,,-99.99,,2013-05-31 17:02:00,
2013-05-31 11:12:00,51.0,23.0,-100.00,North,8,7.0,9.0,34,0.00,,,-99.99,,2013-05-31 17:12:00,
2013-05-31 11:22:00,50.0,21.0,-100.00,North,357,8.0,14.0,31,0.00,,,-99.99,,2013-05-31 17:22:00,
2013-05-31 11:31:00,51.0,24.0,-100.00,NNE,13,8.0,13.0,35,0.00,,,-99.99,,2013-05-31 17:31:00,
2013-05-31 11:42:00,51.0,22.0,-100.00,NW,304,6.0,11.0,32,0.00,,,-99.99,,2013-05-31 17:42:00,
2013-05-31 11:52:00,51.0,25.0,-100.00,NW,320,7.0,11.0,35,0.00,,,-99.99,,2013-05-31 17:52:00,
2013-05-31 12:01:00,53.0,26.0,-100.00,West,275,7.0,10.0,34,0.00,,,-99.99,,2013-05-31 18:01:00,
2013-05-31 12:11:00,52.0,24.0,-100.00,NW,322,6.0,11.0,33,0.00,,,-99.99,,2013-05-31 18:11:00,
2013-05-31 12:21:00,52.0,16.0,-100.00,NW,320,9.0,13.0,24,0.00,,,-99.99,,2013-05-31 18:21:00,
2013-05-31 12:31:00,52.0,17.0,-100.00,NW,325,17.0,22.0,25,0.00,,,-99.99,,2013-05-31 18:31:00,
2013-05-31 12:41:00,53.0,17.0,-100.00,NW,311,14.0,19.0,24,0.00,,,-99.99,,2013-05-31 18:41:00,
2013-05-31 12:52:00,53.0,18.0,-100.00,NW,313,19.0,25.0,25,0.00,,,-99.99,,2013-05-31 18:52:00,
2013-05-31 13:01:00,54.0,18.0,-100.00,NW,306,13.0,19.0,24,0.00,,,-99.99,,2013-05-31 19:01:00,
2013-05-31 13:11:00,53.0,18.0,-100.00,NW,320,14.0,22.0,25,0.00,,,-99.99,,2013-05-31 19:11:00,
2013-05-31 13:21:00,54.0,20.0,-100.00,NW,311,17.0,22.0,25,0.00,,,-99.99,,2013-05-31 19:21:00,
2013-05-31 13:31:00,54.0,20.0,-100.00,NW,315,14.0,18.0,26,0.00,,,-99.99,,2013-05-31 19:31:00,
2013-05-31 13:41:00,55.0,21.0,-100.00,NW,319,15.0,20.0,26,0.00,,,-99.99,,2013-05-31 19:41:00,
2013-05-31 13:52:00,54.0,21.0,-100.00,NNW,339,13.0,18.0,27,0.00,,,-99.99,,2013-05-31 19:52:00,
2013-05-31 14:01:00,55.0,22.0,-100.00,NNW,332,8.0,13.0,27,0.00,,,-99.99,,2013-05-31 20:01:00,
2013-05-31 14:11:00,55.0,23.0,-100.00,NW,322,7.0,14.0,29,0.00,,,-99.99,,2013-05-31 20:11:00,
2013-05-31 14:22:00,55.0,23.0,-100.00,NW,305,14.0,18.0,28,0.00,,,-99.99,,2013-05-31 20:22:00,
2013-05-31 14:31:00,56.0,24.0,-100.00,NW,308,13.0,22.0,28,0.00,,,-99.99,,2013-05-31 20:31:00,
2013-05-31 14:41:00,56.0,23.0,-100.00,NW,323,14.0,24.0,28,0.00,,,-99.99,,2013-05-31 20:41:00,
2013-05-31 14:51:00,57.0,24.0,-100.00,NW,306,12.0,18.0,28,0.00,,,-99.99,,2013-05-31 20:51:00,
2013-05-31 15:01:00,56.0,24.0,-100.00,NW,323,11.0,18.0,29,0.00,,,-99.99,,2013-05-31 21:01:00,
2013-05-31 15:11:00,56.0,24.0,-100.00,NW,320,11.0,18.0,29,0.00,,,-99.99,,2013-05-31 21:11:00,
2013-05-31 15:22:00,56.0,24.0,-100.00,NNW,329,12.0,15.0,28,0.00,,,-99.99,,2013-05-31 21:22:00,
2013-05-31 15:32:00,56.0,24.0,-100.00,NW,320,18.0,25.0,29,0.00,,,-99.99,,2013-05-31 21:32:00,
2013-05-31 15:42:00,56.0,23.0,-100.00,NW,312,14.0,24.0,28,0.00,,,-99.99,,2013-05-31 21:42:00,
2013-05-31 15:53:00,56.0,26.0,-100.00,NW,322,14.0,21.0,30,0.00,,,-99.99,,2013-05-31 21:53:00,
2013-05-31 16:02:00,56.0,23.0,-100.00,WNW,299,18.0,25.0,28,0.00,,,-99.99,,2013-05-31 22:02:00,
2013-05-31 16:12:00,56.0,24.0,-100.00,NW,312,19.0,24.0,28,0.00,,,-99.99,,2013-05-31 22:12:00,
2013-05-31 16:22:00,56.0,25.0,-100.00,NW,320,19.0,24.0,29,0.00,,,-99.99,,2013-05-31 22:22:00,
2013-05-31 16:33:00,56.0,24.0,-100.00,NW,320,17.0,22.0,28,0.00,,,-99.99,,2013-05-31 22:33:00,
2013-05-31 16:41:00,56.0,25.0,-100.00,NW,306,17.0,26.0,30,0.00,,,-99.99,,2013-05-31 22:41:00,
2013-05-31 16:52:00,56.0,24.0,-100.00,WNW,298,19.0,23.0,29,0.00,,,-99.99,,2013-05-31 22:52:00,
2013-05-31 17:02:00,56.0,24.0,-100.00,NW,318,15.0,19.0,29,0.00,,,-99.99,,2013-05-31 23:02:00,
2013-05-31 17:12:00,56.0,24.0,-100.00,NW,319,17.0,24.0,29,0.00,,,-99.99,,2013-05-31 23:12:00,
2013-05-31 17:21:00,55.0,25.0,-100.00,NW,323,15.0,23.0,31,0.00,,,-99.99,,2013-05-31 23:21:00,
2013-05-31 17:32:00,56.0,24.0,-100.00,NW,316,19.0,24.0,29,0.00,,,-99.99,,2013-05-31 23:32:00,
2013-05-31 17:42:00,54.0,24.0,-100.00,NW,316,17.0,23.0,30,0.00,,,-99.99,,2013-05-31 23:42:00,
2013-05-31 17:52:00,55.0,23.0,-100.00,NW,313,17.0,23.0,29,0.00,,,-99.99,,2013-05-31 23:52:00,
2013-05-31 18:01:00,55.0,25.0,-100.00,NW,320,21.0,26.0,30,0.00,,,-99.99,,2013-06-01 00:01:00,
2013-05-31 18:11:00,55.0,24.0,-100.00,NW,325,21.0,26.0,30,0.00,,,-99.99,,2013-06-01 00:11:00,
2013-05-31 18:21:00,55.0,24.0,-100.00,NW,322,21.0,27.0,30,0.00,,,-99.99,,2013-06-01 00:21:00,
2013-05-31 18:31:00,54.0,23.0,-100.00,NW,323,23.0,28.0,30,0.00,,,-99.99,,2013-06-01 00:31:00,
2013-05-31 18:41:00,55.0,25.0,-100.00,NW,315,23.0,28.0,31,0.00,,,-99.99,,2013-06-01 00:41:00,
2013-05-31 18:51:00,54.0,24.0,-100.00,NW,320,21.0,31.0,31,0.00,,,-99.99,,2013-06-01 00:51:00,
2013-05-31 19:01:00,54.0,24.0,-100.00,NW,319,21.0,25.0,31,0.00,,,-99.99,,2013-06-01 01:01:00,
2013-05-31 19:11:00,54.0,24.0,-100.00,NW,318,21.0,28.0,31,0.00,,,-99.99,,2013-06-01 01:11:00,
2013-05-31 19:21:00,54.0,23.0,-100.00,NW,322,21.0,29.0,30,0.00,,,-99.99,,2013-06-01 01:21:00,
2013-05-31 19:31:00,54.0,24.0,-100.00,NW,323,22.0,32.0,31,0.00,,,-99.99,,2013-06-01 01:31:00,
2013-05-31 19:41:00,53.0,24.0,-100.00,NW,316,21.0,26.0,31,0.00,,,-99.99,,2013-06-01 01:41:00,
2013-05-31 19:52:00,52.0,31.0,-100.00,North,356,7.0,13.0,44,0.00,,,-99.99,,2013-06-01 01:52:00,
2013-05-31 20:01:00,51.0,30.0,-100.00,North,0,12.0,22.0,44,0.00,,,-99.99,,2013-06-01 02:01:00,
2013-05-31 20:11:00,50.0,31.0,-100.00,North,0,9.0,16.0,48,0.00,,,-99.99,,2013-06-01 02:11:00,
2013-05-31 20:21:00,49.0,32.0,-100.00,NE,48,6.0,12.0,52,0.00,,,-99.99,,2013-06-01 02:21:00,
2013-05-31 20:31:00,48.0,33.0,-100.00,ENE,68,11.0,14.0,56,0.00,,,-99.99,,2013-06-01 02:31:00,
2013-05-31 20:41:00,47.0,33.0,-100.00,ENE,58,11.0,12.0,58,0.00,,,-99.99,,2013-06-01 02:41:00,
2013-05-31 20:51:00,47.0,33.0,-100.00,East,83,2.0,6.0,59,0.00,,,-99.99,,2013-06-01 02:51:00,
2013-05-31 21:01:00,47.0,33.0,-100.00,WNW,295,2.0,4.0,58,0.00,,,-99.99,,2013-06-01 03:01:00,
2013-05-31 21:11:00,46.0,33.0,-100.00,West,270,0.0,0.0,59,0.00,,,-99.99,,2013-06-01 03:11:00,
2013-05-31 21:21:00,46.0,33.0,-100.00,NNE,31,2.0,3.0,59,0.00,,,-99.99,,2013-06-01 03:21:00,
2013-05-31 21:33:00,46.0,33.0,-100.00,NNW,344,3.0,5.0,59,0.00,,,-99.99,,2013-06-01 03:33:00,
2013-05-31 21:43:00,46.0,33.0,-100.00,NW,316,2.0,4.0,60,0.00,,,-99.99,,2013-06-01 03:43:00,
2013-05-31 21:53:00,45.0,33.0,-100.00,WNW,298,2.0,5.0,60,0.00,,,-99.99,,2013-06-01 03:53:00,
2013-05-31 22:02:00,45.0,33.0,-100.00,NNW,346,4.0,6.0,61,0.00,,,-99.99,,2013-06-01 04:02:00,
2013-05-31 22:12:00,45.0,33.0,-100.00,North,354,1.0,2.0,62,0.00,,,-99.99,,2013-06-01 04:12:00,
2013-05-31 22:22:00,45.0,33.0,-100.00,NNE,21,4.0,7.0,63,0.00,,,-99.99,,2013-06-01 04:22:00,
2013-05-31 22:33:00,44.0,33.0,-100.00,NNE,30,5.0,7.0,65,0.00,,,-99.99,,2013-06-01 04:33:00,
2013-05-31 22:42:00,44.0,34.0,-100.00,NE,48,4.0,7.0,67,0.00,,,-99.99,,2013-06-01 04:42:00,
2013-05-31 22:53:00,44.0,34.0,-100.00,ENE,68,7.0,12.0,69,0.00,,,-99.99,,2013-06-01 04:53:00,
2013-05-31 23:02:00,44.0,35.0,-100.00,NE,52,6.0,12.0,70,0.00,,,-99.99,,2013-06-01 05:02:00,
2013-05-31 23:12:00,44.0,35.0,-100.00,ENE,69,9.0,12.0,71,0.00,,,-99.99,,2013-06-01 05:12:00,
2013-05-31 23:22:00,43.0,35.0,-100.00,ENE,72,9.0,15.0,71,0.00,,,-99.99,,2013-06-01 05:22:00,
2013-05-31 23:32:00,43.0,35.0,-100.00,NE,42,4.0,7.0,72,0.00,,,-99.99,,2013-06-01 05:32:00,
2013-05-31 23:42:00,43.0,35.0,-100.00,East,79,4.0,6.0,73,0.00,,,-99.99,,2013-06-01 05:42:00,
2013-05-31 23:52:00,43.0,35.0,-100.00,ENE,78,6.0,9.0,74,0.00,,,-99.99,,2013-06-01 05:52:00,